Time,TemperatureF,DewpointF,PressureIn,WindDirection,WindDirectionDegrees,WindSpeedMPH,WindSpeedGustMPH,Humidity,HourlyPrecipIn,Conditions,Clouds,dailyrainin,SolarRadiationWatts/m^2,SoftwareType,DateUTC
2013-09-14 00:00:00,39.0,37.0,-100.00,NE,36,0.0,0.0,94,0.00,,,0.00,0.000000,,2013-09-14 05:00:00,
2013-09-14 00:22:00,39.0,37.0,-100.00,NE,36,0.0,0.0,94,0.00,,,0.00,0.000000,,2013-09-14 05:22:00,
2013-09-14 00:34:00,39.0,37.0,-100.00,NE,36,0.0,0.0,94,0.00,,,0.00,0.000000,,2013-09-14 05:34:00,
2013-09-14 00:43:00,39.0,37.0,-100.00,NE,36,0.0,0.0,94,0.00,,,0.00,0.000000,,2013-09-14 05:43:00,
2013-09-14 00:52:00,39.0,37.0,-100.00,NE,36,0.0,0.0,94,0.00,,,0.00,0.000000,,2013-09-14 05:52:00,
2013-09-14 01:00:00,37.0,35.0,-100.00,NE,39,0.0,0.0,93,0.00,,,0.00,0.000000,,2013-09-14 06:00:00,
2013-09-14 01:22:00,37.0,35.0,-100.00,NE,39,0.0,0.0,93,0.00,,,0.00,0.000000,,2013-09-14 06:22:00,
2013-09-14 01:32:00,37.0,35.0,-100.00,NE,39,0.0,0.0,93,0.00,,,0.00,0.000000,,2013-09-14 06:32:00,
2013-09-14 01:42:00,37.0,35.0,-100.00,NE,39,0.0,0.0,93,0.00,,,0.00,0.000000,,2013-09-14 06:42:00,
2013-09-14 01:52:00,37.0,35.0,-100.00,NE,39,0.0,0.0,93,0.00,,,0.00,0.000000,,2013-09-14 06:52:00,
2013-09-14 02:00:00,36.0,34.0,-100.00,ENE,77,0.0,0.0,94,0.00,,,0.00,0.000000,,2013-09-14 07:00:00,
2013-09-14 02:42:00,36.0,34.0,-100.00,ENE,77,0.0,0.0,94,0.00,,,0.00,0.000000,,2013-09-14 07:42:00,
2013-09-14 02:52:00,36.0,34.0,-100.00,ENE,77,0.0,0.0,94,0.00,,,0.00,0.000000,,2013-09-14 07:52:00,
2013-09-14 03:00:00,35.0,33.0,-100.00,East,93,0.0,0.0,94,0.00,,,0.00,0.000000,,2013-09-14 08:00:00,
2013-09-14 03:22:00,35.0,33.0,-100.00,East,93,0.0,0.0,94,0.00,,,0.00,0.000000,,2013-09-14 08:22:00,
2013-09-14 03:32:00,35.0,33.0,-100.00,East,93,0.0,0.0,94,0.00,,,0.00,0.000000,,2013-09-14 08:32:00,
2013-09-14 03:42:00,35.0,33.0,-100.00,East,93,0.0,0.0,94,0.00,,,0.00,0.000000,,2013-09-14 08:42:00,
2013-09-14 03:52:00,35.0,33.0,-100.00,East,93,0.0,0.0,94,0.00,,,0.00,0.000000,,2013-09-14 08:52:00,
2013-09-14 04:00:00,35.0,33.0,-100.00,ENE,76,0.0,2.0,94,0.00,,,0.00,0.000000,,2013-09-14 09:00:00,
2013-09-14 04:22:00,35.0,33.0,-100.00,ENE,76,0.0,2.0,94,0.00,,,0.00,0.000000,,2013-09-14 09:22:00,
2013-09-14 04:33:00,35.0,33.0,-100.00,ENE,76,0.0,2.0,94,0.00,,,0.00,0.000000,,2013-09-14 09:33:00,
2013-09-14 04:43:00,35.0,33.0,-100.00,ENE,76,0.0,2.0,94,0.00,,,0.00,0.000000,,2013-09-14 09:43:00,
2013-09-14 04:54:00,35.0,33.0,-100.00,ENE,76,0.0,2.0,94,0.00,,,0.00,0.000000,,2013-09-14 09:54:00,
2013-09-14 05:00:00,35.0,33.0,-100.00,East,93,0.0,2.0,94,0.00,,,0.00,0.000000,,2013-09-14 10:00:00,
2013-09-14 05:42:00,35.0,33.0,-100.00,East,93,0.0,2.0,94,0.00,,,0.00,0.000000,,2013-09-14 10:42:00,
2013-09-14 05:53:00,35.0,33.0,-100.00,East,93,0.0,2.0,94,0.00,,,0.00,0.000000,,2013-09-14 10:53:00,
2013-09-14 06:00:00,35.0,34.0,-100.00,East,91,0.0,2.0,95,0.00,,,0.00,0.000000,,2013-09-14 11:00:00,
2013-09-14 06:22:00,35.0,34.0,-100.00,East,91,0.0,2.0,95,0.00,,,0.00,0.000000,,2013-09-14 11:22:00,
2013-09-14 06:33:00,35.0,34.0,-100.00,East,91,0.0,2.0,95,0.00,,,0.00,0.000000,,2013-09-14 11:33:00,
2013-09-14 06:42:00,35.0,34.0,-100.00,East,91,0.0,2.0,95,0.00,,,0.00,0.000000,,2013-09-14 11:42:00,
2013-09-14 06:52:00,35.0,34.0,-100.00,East,91,0.0,2.0,95,0.00,,,0.00,0.000000,,2013-09-14 11:52:00,
2013-09-14 07:00:00,41.0,39.0,-100.00,SSE,156,1.0,4.0,92,0.00,,,0.00,5.000000,,2013-09-14 12:00:00,
2013-09-14 07:42:00,41.0,39.0,-100.00,SSE,156,1.0,4.0,92,0.00,,,0.00,5.000000,,2013-09-14 12:42:00,
2013-09-14 07:52:00,41.0,39.0,-100.00,SSE,156,1.0,4.0,92,0.00,,,0.00,5.000000,,2013-09-14 12:52:00,
2013-09-14 08:00:00,47.0,42.0,-100.00,SSW,203,4.0,6.0,84,0.00,,,0.00,168.000000,,2013-09-14 13:00:00,
2013-09-14 08:42:00,47.0,42.0,-100.00,SSW,203,4.0,6.0,84,0.00,,,0.00,168.000000,,2013-09-14 13:42:00,
2013-09-14 08:52:00,47.0,42.0,-100.00,SSW,203,4.0,6.0,84,0.00,,,0.00,168.000000,,2013-09-14 13:52:00,
2013-09-14 09:00:00,52.0,45.0,-100.00,SSW,206,5.0,10.0,76,0.00,,,0.00,317.000000,,2013-09-14 14:00:00,
2013-09-14 09:42:00,52.0,45.0,-100.00,SSW,206,5.0,10.0,76,0.00,,,0.00,317.000000,,2013-09-14 14:42:00,
2013-09-14 09:52:00,52.0,45.0,-100.00,SSW,206,5.0,10.0,76,0.00,,,0.00,317.000000,,2013-09-14 14:52:00,
2013-09-14 10:00:00,59.0,46.0,-100.00,SSW,212,6.0,13.0,62,0.00,,,0.00,556.000000,,2013-09-14 15:00:00,
2013-09-14 10:43:00,59.0,46.0,-100.00,SSW,212,6.0,13.0,62,0.00,,,0.00,556.000000,,2013-09-14 15:43:00,
2013-09-14 10:53:00,59.0,46.0,-100.00,SSW,212,6.0,13.0,62,0.00,,,0.00,556.000000,,2013-09-14 15:53:00,
2013-09-14 11:00:00,63.0,46.0,-100.00,SW,217,7.0,16.0,54,0.00,,,0.00,701.000000,,2013-09-14 16:00:00,
2013-09-14 11:44:00,63.0,46.0,-100.00,SW,217,7.0,16.0,54,0.00,,,0.00,701.000000,,2013-09-14 16:44:00,
2013-09-14 11:54:00,63.0,46.0,-100.00,SW,217,7.0,16.0,54,0.00,,,0.00,701.000000,,2013-09-14 16:54:00,
2013-09-14 12:00:00,65.0,48.0,-100.00,SSW,194,6.0,15.0,54,0.00,,,0.00,761.000000,,2013-09-14 17:00:00,
2013-09-14 12:43:00,65.0,48.0,-100.00,SSW,194,6.0,15.0,54,0.00,,,0.00,761.000000,,2013-09-14 17:43:00,
2013-09-14 12:54:00,65.0,48.0,-100.00,SSW,194,6.0,15.0,54,0.00,,,0.00,761.000000,,2013-09-14 17:54:00,
2013-09-14 13:00:00,67.0,48.0,-100.00,SW,220,7.0,14.0,51,0.00,,,0.00,802.000000,,2013-09-14 18:00:00,
2013-09-14 13:22:00,67.0,48.0,-100.00,SW,220,7.0,14.0,51,0.00,,,0.00,802.000000,,2013-09-14 18:22:00,
2013-09-14 13:32:00,67.0,48.0,-100.00,SW,220,7.0,14.0,51,0.00,,,0.00,802.000000,,2013-09-14 18:32:00,
2013-09-14 13:43:00,67.0,48.0,-100.00,SW,220,7.0,14.0,51,0.00,,,0.00,802.000000,,2013-09-14 18:43:00,
2013-09-14 13:52:00,67.0,48.0,-100.00,SW,220,7.0,14.0,51,0.00,,,0.00,802.000000,,2013-09-14 18:52:00,
2013-09-14 14:00:00,67.0,48.0,-100.00,SW,218,9.0,17.0,50,0.00,,,0.00,797.000000,,2013-09-14 19:00:00,
2013-09-14 14:22:00,67.0,48.0,-100.00,SW,218,9.0,17.0,50,0.00,,,0.00,797.000000,,2013-09-14 19:22:00,
2013-09-14 14:32:00,67.0,48.0,-100.00,SW,218,9.0,17.0,50,0.00,,,0.00,797.000000,,2013-09-14 19:32:00,
2013-09-14 14:42:00,67.0,48.0,-100.00,SW,218,9.0,17.0,50,0.00,,,0.00,797.000000,,2013-09-14 19:42:00,
2013-09-14 14:52:00,67.0,48.0,-100.00,SW,218,9.0,17.0,50,0.00,,,0.00,797.000000,,2013-09-14 19:52:00,
2013-09-14 15:00:00,67.0,49.0,-100.00,SSW,202,5.0,17.0,53,0.00,,,0.00,564.000000,,2013-09-14 20:00:00,
2013-09-14 15:42:00,67.0,49.0,-100.00,SSW,202,5.0,17.0,53,0.00,,,0.00,564.000000,,2013-09-14 20:42:00,
2013-09-14 15:52:00,67.0,49.0,-100.00,SSW,202,5.0,17.0,53,0.00,,,0.00,564.000000,,2013-09-14 20:52:00,
2013-09-14 16:00:00,66.0,49.0,-100.00,SSW,212,5.0,11.0,55,0.00,,,0.00,282.000000,,2013-09-14 21:00:00,
2013-09-14 16:44:00,66.0,49.0,-100.00,SSW,212,5.0,11.0,55,0.00,,,0.00,282.000000,,2013-09-14 21:44:00,
2013-09-14 16:54:00,66.0,49.0,-100.00,SSW,212,5.0,11.0,55,0.00,,,0.00,282.000000,,2013-09-14 21:54:00,
2013-09-14 17:00:00,65.0,53.0,-100.00,SSE,164,1.0,6.0,64,0.00,,,0.00,156.000000,,2013-09-14 22:00:00,
2013-09-14 17:42:00,65.0,53.0,-100.00,SSE,164,1.0,6.0,64,0.00,,,0.00,156.000000,,2013-09-14 22:42:00,
2013-09-14 17:53:00,65.0,53.0,-100.00,SSE,164,1.0,6.0,64,0.00,,,0.00,156.000000,,2013-09-14 22:53:00,
2013-09-14 18:00:00,63.0,51.0,-100.00,SSW,197,1.0,6.0,66,0.00,,,0.00,80.000000,,2013-09-14 23:00:00,
2013-09-14 18:42:00,63.0,51.0,-100.00,SSW,197,1.0,6.0,66,0.00,,,0.00,80.000000,,2013-09-14 23:42:00,
2013-09-14 18:53:00,63.0,51.0,-100.00,SSW,197,1.0,6.0,66,0.00,,,0.00,80.000000,,2013-09-14 23:53:00,
2013-09-14 19:00:00,60.0,51.0,-100.00,SSE,155,0.0,6.0,73,0.00,,,0.00,24.000000,,2013-09-15 00:00:00,
2013-09-14 19:22:00,60.0,51.0,-100.00,SSE,155,0.0,6.0,73,0.00,,,0.00,24.000000,,2013-09-15 00:22:00,
2013-09-14 19:32:00,60.0,51.0,-100.00,SSE,155,0.0,6.0,73,0.00,,,0.00,24.000000,,2013-09-15 00:32:00,
2013-09-14 19:42:00,60.0,51.0,-100.00,SSE,155,0.0,6.0,73,0.00,,,0.00,24.000000,,2013-09-15 00:42:00,
2013-09-14 19:53:00,60.0,51.0,-100.00,SSE,155,0.0,6.0,73,0.00,,,0.00,24.000000,,2013-09-15 00:53:00,
2013-09-14 20:00:00,58.0,52.0,-100.00,NE,47,0.0,2.0,81,0.00,,,0.00,0.000000,,2013-09-15 01:00:00,
2013-09-14 20:22:00,58.0,52.0,-100.00,NE,47,0.0,2.0,81,0.00,,,0.00,0.000000,,2013-09-15 01:22:00,
2013-09-14 20:32:00,58.0,52.0,-100.00,NE,47,0.0,2.0,81,0.00,,,0.00,0.000000,,2013-09-15 01:32:00,
2013-09-14 20:42:00,58.0,52.0,-100.00,NE,47,0.0,2.0,81,0.00,,,0.00,0.000000,,2013-09-15 01:42:00,
2013-09-14 20:52:00,58.0,52.0,-100.00,NE,47,0.0,2.0,81,0.00,,,0.00,0.000000,,2013-09-15 01:52:00,
2013-09-14 21:00:00,57.0,51.0,-100.00,SW,235,4.0,8.0,80,0.00,,,0.00,0.000000,,2013-09-15 02:00:00,
2013-09-14 21:22:00,57.0,51.0,-100.00,SW,235,4.0,8.0,80,0.00,,,0.00,0.000000,,2013-09-15 02:22:00,
2013-09-14 21:32:00,57.0,51.0,-100.00,SW,235,4.0,8.0,80,0.00,,,0.00,0.000000,,2013-09-15 02:32:00,
2013-09-14 21:42:00,57.0,51.0,-100.00,SW,235,4.0,8.0,80,0.00,,,0.00,0.000000,,2013-09-15 02:42:00,
2013-09-14 21:52:00,57.0,51.0,-100.00,SW,235,4.0,8.0,80,0.00,,,0.00,0.000000,,2013-09-15 02:52:00,
2013-09-14 22:00:00,-999.0,-99.9,-100.00,WSW,238,3.0,13.0,-999,-99.99,,,-99.99,0.000000,,2013-09-15 03:00:00,
2013-09-14 22:22:00,55.0,53.0,-100.00,WSW,238,3.0,13.0,92,0.03,,,0.03,0.000000,,2013-09-15 03:22:00,
2013-09-14 22:34:00,55.0,53.0,-100.00,WSW,238,3.0,13.0,92,0.03,,,0.03,0.000000,,2013-09-15 03:34:00,
2013-09-14 22:44:00,55.0,53.0,-100.00,WSW,238,3.0,13.0,92,0.03,,,0.03,0.000000,,2013-09-15 03:44:00,
2013-09-14 22:55:00,55.0,53.0,-100.00,WSW,238,3.0,13.0,92,0.03,,,0.03,0.000000,,2013-09-15 03:55:00,
2013-09-14 23:00:00,54.0,53.0,-100.00,SSE,154,1.0,4.0,96,0.02,,,0.05,0.000000,,2013-09-15 04:00:00,
2013-09-14 23:24:00,54.0,53.0,-100.00,SSE,154,1.0,4.0,96,0.02,,,0.05,0.000000,,2013-09-15 04:24:00,
2013-09-14 23:34:00,54.0,53.0,-100.00,SSE,154,1.0,4.0,96,0.02,,,0.05,0.000000,,2013-09-15 04:34:00,
2013-09-14 23:43:00,54.0,53.0,-100.00,SSE,154,1.0,4.0,96,0.02,,,0.05,0.000000,,2013-09-15 04:43:00,
2013-09-14 23:54:00,54.0,53.0,-100.00,SSE,154,1.0,4.0,96,0.02,,,0.05,0.000000,,2013-09-15 04:54:00,